This is the latest recevied weather packets stored in our database for station/object WC4PEM. If no packets are shown the sender has not sent any weather packets the latest 10 day(s).
| Time | Temp. | Humidity | Pressure | Rain* | Wind** | Luminosity | Snow |
|---|---|---|---|---|---|---|---|
| 1778003967 | 30.56° C | 48% | 1015 hPa | 0 mm | - | - | - |
| 1778003667 | 30.56° C | 50% | 1014.9 hPa | 0 mm | - | - | - |
| 1778003367 | 30° C | 49% | 1015.1 hPa | 0 mm | - | - | - |
| 1778003067 | 30° C | 50% | 1015.2 hPa | 0 mm | - | - | - |
| 1778002767 | 30° C | 51% | 1015.2 hPa | 0 mm | - | - | - |
| 1778002467 | 30° C | 51% | 1015.3 hPa | 0 mm | - | - | - |
| 1778002167 | 30° C | 51% | 1015.2 hPa | 0 mm | - | - | - |
| 1778001867 | 30° C | 50% | 1015.2 hPa | 0 mm | - | - | - |
| 1778001567 | 30° C | 50% | 1015.3 hPa | 0 mm | - | - | - |
| 1778001267 | 30° C | 50% | 1015.4 hPa | 0 mm | - | - | - |
| 1778000967 | 30° C | 50% | 1015.3 hPa | 0 mm | - | - | - |
| 1778000667 | 30° C | 52% | 1015.3 hPa | 0 mm | - | - | - |
| 1778000367 | 28.89° C | 53% | 1015.4 hPa | 0 mm | - | - | - |
| 1778000157 | 28.89° C | 54% | 1015.5 hPa | 0 mm | - | - | - |
| 1778000067 | 28.89° C | 54% | 1015.5 hPa | 0 mm | - | - | - |
| 1777999849 | 29.44° C | 53% | 1015.5 hPa | 0 mm | - | - | - |
| 1777999767 | 29.44° C | 53% | 1015.5 hPa | 0 mm | - | - | - |
| 1777999559 | 28.89° C | 54% | 1015.5 hPa | 0 mm | - | - | - |
| 1777999467 | 28.89° C | 54% | 1015.5 hPa | 0 mm | - | - | - |
| 1777999317 | 30° C | 52% | 1015.5 hPa | 0 mm | - | - | - |
| 1777999167 | 29.44° C | 53% | 1015.5 hPa | 0 mm | - | - | - |
| 1777998867 | 30° C | 52% | 1015.5 hPa | 0 mm | - | - | - |
| 1777998567 | 29.44° C | 53% | 1015.5 hPa | 0 mm | - | - | - |
| 1777998360 | 28.89° C | 54% | 1015.5 hPa | 0 mm | - | - | - |
| 1777998267 | 28.89° C | 54% | 1015.5 hPa | 0 mm | - | - | - |
* Rain latest hour (hover to see other rain measurements)
** Current wind speed in m/s (hover to see current wind gust speed)